This is the latest recevied weather packets stored in our database for station/object W4GAP. If no packets are shown the sender has not sent any weather packets the latest 10 day(s).
| Time | Temp. | Humidity | Pressure | Rain* | Wind** | Luminosity | Snow |
|---|---|---|---|---|---|---|---|
| 1778192292 | 18.89° C | 78% | 1010 hPa | 0 mm | - | 24 W/m² | - |
| 1778191988 | 18.89° C | 79% | 1009.7 hPa | 0 mm | - | 32 W/m² | - |
| 1778191684 | 18.33° C | 79% | 1009.8 hPa | 0 mm | - | 30 W/m² | - |
| 1778191383 | 18.33° C | 81% | 1009.8 hPa | 0 mm | - | 33 W/m² | - |
| 1778191078 | 18.33° C | 81% | 1009.7 hPa | 0 mm | - | 43 W/m² | - |
| 1778190776 | 18.33° C | 80% | 1009.6 hPa | 0 mm | - | 23 W/m² | - |
| 1778190473 | 18.89° C | 79% | 1009.8 hPa | 0 mm | - | 18 W/m² | - |
| 1778190170 | 18.33° C | 80% | 1009.5 hPa | 0 mm | - | 28 W/m² | - |
| 1778189865 | 18.33° C | 80% | 1009.9 hPa | 0 mm | - | 37 W/m² | - |
| 1778189563 | 18.33° C | 78% | 1009.5 hPa | 0 mm | - | 34 W/m² | - |
| 1778189259 | 18.33° C | 80% | 1009.4 hPa | 0 mm | - | 45 W/m² | - |
| 1778188955 | 18.33° C | 80% | 1009.2 hPa | 0 mm | - | 40 W/m² | - |
| 1778188652 | 18.33° C | 81% | 1009.2 hPa | 0 mm | - | 48 W/m² | - |
| 1778188348 | 18.89° C | 80% | 1009.2 hPa | 0 mm | - | 27 W/m² | - |
| 1778188045 | 18.33° C | 80% | 1009.2 hPa | 0 mm | - | 39 W/m² | - |
| 1778187742 | 18.89° C | 81% | 1009.1 hPa | 0 mm | - | 35 W/m² | - |
| 1778187439 | 18.89° C | 79% | 1009.3 hPa | 0 mm | - | 24 W/m² | - |
| 1778187135 | 18.89° C | 80% | 1009.2 hPa | 0 mm | - | 51 W/m² | - |
| 1778186832 | 18.89° C | 79% | 1009.3 hPa | 0 mm | - | 32 W/m² | - |
| 1778186530 | 18.89° C | 81% | 1009.2 hPa | 0 mm | - | 62 W/m² | - |
| 1778186227 | 18.89° C | 82% | 1009.2 hPa | 0 mm | - | 60 W/m² | - |
| 1778185925 | 18.89° C | 81% | 1009.4 hPa | 0 mm | - | 42 W/m² | - |
| 1778185620 | 18.89° C | 81% | 1009.4 hPa | 0 mm | - | 26 W/m² | - |
| 1778185316 | 18.89° C | 81% | 1009.4 hPa | 0 mm | - | 56 W/m² | - |
| 1778185011 | 19.44° C | 80% | 1009.2 hPa | 0 mm | - | 44 W/m² | - |
* Rain latest hour (hover to see other rain measurements)
** Current wind speed in m/s (hover to see current wind gust speed)